TimeEEST,TemperatureF,Dew PointF,Humidity,Sea Level PressureIn,VisibilityMPH,Wind Direction,Wind SpeedMPH,Gust SpeedMPH,PrecipitationIn,Events,Conditions,WindDirDegrees,DateUTC
12:20 AM,62.6,53.6,72,30.06,-9999.0,NE,10.4,-,N/A,,Clear,40,2013-07-18 21:20:00
12:50 AM,60.8,53.6,77,30.06,-9999.0,NNE,8.1,-,N/A,,Clear,30,2013-07-18 21:50:00
1:20 AM,59.0,53.6,82,30.06,-9999.0,North,5.8,-,N/A,,Clear,10,2013-07-18 22:20:00
1:50 AM,59.0,53.6,82,30.06,-9999.0,NNE,8.1,-,N/A,,Clear,20,2013-07-18 22:50:00
2:20 AM,59.0,53.6,82,30.06,-9999.0,ENE,6.9,-,N/A,,Clear,70,2013-07-18 23:20:00
2:50 AM,59.0,53.6,82,30.06,-9999.0,ENE,4.6,-,N/A,,Clear,60,2013-07-18 23:50:00
3:00 AM,60,53,70,29.95,12,ENE,4.6,,,,,60,2013-07-19 00:00:00
3:20 AM,55.4,51.8,88,30.06,-9999.0,North,4.6,-,N/A,,Clear,350,2013-07-19 00:20:00
3:50 AM,55.4,51.8,88,30.06,-9999.0,Variable,3.5,-,N/A,,Clear,0,2013-07-19 00:50:00
4:20 AM,53.6,51.8,94,30.06,-9999.0,NW,1.2,-,N/A,,Clear,320,2013-07-19 01:20:00
4:50 AM,53.6,51.8,94,30.06,-9999.0,North,4.6,-,N/A,,Clear,360,2013-07-19 01:50:00
5:20 AM,53.6,51.8,94,30.06,-9999.0,North,5.8,-,N/A,,Clear,350,2013-07-19 02:20:00
5:50 AM,53.6,51.8,94,30.06,-9999.0,NNE,3.5,-,N/A,,Clear,20,2013-07-19 02:50:00
6:20 AM,55.4,51.8,88,30.06,-9999.0,Variable,2.3,-,N/A,,Clear,0,2013-07-19 03:20:00
6:50 AM,57.2,51.8,82,30.06,-9999.0,Variable,1.2,-,N/A,,Clear,0,2013-07-19 03:50:00
7:20 AM,59.0,53.6,82,30.06,-9999.0,Variable,1.2,-,N/A,,Clear,0,2013-07-19 04:20:00
7:50 AM,59.0,51.8,77,30.06,-9999.0,Variable,2.3,-,N/A,,Clear,0,2013-07-19 04:50:00
8:20 AM,62.6,51.8,68,30.06,-9999.0,Variable,2.3,-,N/A,,Clear,0,2013-07-19 05:20:00
8:50 AM,66.2,51.8,60,30.06,6.2,Variable,2.3,-,N/A,,Partly Cloudy,0,2013-07-19 05:50:00
9:00 AM,65,52,53,29.96,12,NNE,2.3,,,,Scattered Clouds,20,2013-07-19 06:00:00
9:20 AM,68.0,50.0,52,30.06,6.2,NNE,8.1,-,N/A,,Partly Cloudy,20,2013-07-19 06:20:00
9:50 AM,69.8,50.0,49,30.06,6.2,NE,12.7,-,N/A,,Partly Cloudy,40,2013-07-19 06:50:00
10:20 AM,71.6,50.0,46,30.06,6.2,NE,10.4,-,N/A,,Partly Cloudy,40,2013-07-19 07:20:00
10:50 AM,71.6,50.0,46,30.04,6.2,NNE,11.5,-,N/A,,Scattered Clouds,30,2013-07-19 07:50:00
11:20 AM,73.4,48.2,41,30.04,6.2,NE,10.4,-,N/A,,Scattered Clouds,50,2013-07-19 08:20:00
11:50 AM,73.4,48.2,41,30.04,6.2,NNE,11.5,-,N/A,,Scattered Clouds,30,2013-07-19 08:50:00
12:20 PM,75.2,46.4,36,30.04,6.2,NNE,10.4,-,N/A,,Scattered Clouds,20,2013-07-19 09:20:00
12:50 PM,77.0,44.6,32,30.04,6.2,ENE,10.4,-,N/A,,Scattered Clouds,60,2013-07-19 09:50:00
1:20 PM,75.2,46.4,36,30.04,6.2,NE,10.4,-,N/A,,Scattered Clouds,40,2013-07-19 10:20:00
1:50 PM,78.8,46.4,32,30.04,6.2,NNE,12.7,-,N/A,,Scattered Clouds,20,2013-07-19 10:50:00
2:20 PM,78.8,46.4,32,30.01,6.2,NNW,11.5,-,N/A,,Scattered Clouds,330,2013-07-19 11:20:00
2:50 PM,78.8,44.6,30,30.01,6.2,North,11.5,-,N/A,,Scattered Clouds,360,2013-07-19 11:50:00
3:00 PM,79,44,19,29.88,12,North,11.5,,,,Partly Cloudy,0,2013-07-19 12:00:00
3:20 PM,78.8,44.6,30,30.01,6.2,North,13.8,-,N/A,,Scattered Clouds,10,2013-07-19 12:20:00
3:50 PM,78.8,42.8,28,30.01,6.2,NE,10.4,-,N/A,,Scattered Clouds,40,2013-07-19 12:50:00
4:20 PM,80.6,42.8,26,29.98,6.2,NNE,10.4,-,N/A,,Scattered Clouds,20,2013-07-19 13:20:00
4:50 PM,80.6,41.0,24,29.98,6.2,NNE,8.1,-,N/A,,Scattered Clouds,30,2013-07-19 13:50:00
5:20 PM,80.6,41.0,24,29.98,6.2,North,10.4,-,N/A,,Scattered Clouds,360,2013-07-19 14:20:00
5:50 PM,78.8,42.8,28,29.98,6.2,North,12.7,-,N/A,,Scattered Clouds,360,2013-07-19 14:50:00
6:20 PM,80.6,42.8,26,29.98,6.2,North,10.4,-,N/A,,Scattered Clouds,350,2013-07-19 15:20:00
6:50 PM,80.6,42.8,26,29.98,6.2,NE,10.4,-,N/A,,Scattered Clouds,40,2013-07-19 15:50:00
7:20 PM,78.8,41.0,26,29.98,6.2,NE,12.7,-,N/A,,Scattered Clouds,50,2013-07-19 16:20:00
7:50 PM,77.0,42.8,29,29.98,6.2,North,12.7,-,N/A,,Partly Cloudy,360,2013-07-19 16:50:00
8:20 PM,73.4,44.6,36,29.98,6.2,North,16.1,-,N/A,,Partly Cloudy,350,2013-07-19 17:20:00
8:50 PM,73.4,44.6,36,29.98,-9999.0,North,11.5,-,N/A,,Clear,10,2013-07-19 17:50:00
9:00 PM,73,46,26,29.85,12,North,11.5,,,,,10,2013-07-19 18:00:00
9:20 PM,69.8,44.6,40,30.01,-9999.0,NNE,12.7,-,N/A,,Clear,30,2013-07-19 18:20:00
9:50 PM,71.6,42.8,35,30.01,-9999.0,NE,11.5,-,N/A,,Clear,40,2013-07-19 18:50:00
10:20 PM,69.8,44.6,40,30.04,-9999.0,NE,16.1,-,N/A,,Clear,50,2013-07-19 19:20:00
10:50 PM,68.0,48.2,49,30.04,-9999.0,NE,12.7,-,N/A,,Clear,50,2013-07-19 19:50:00
11:20 PM,68.0,48.2,49,30.04,-9999.0,NE,12.7,-,N/A,,Clear,40,2013-07-19 20:20:00
11:50 PM,66.2,48.2,52,30.04,-9999.0,NE,11.5,-,N/A,,Clear,40,2013-07-19 20:50:00